RH
29 29 29 31 27 19 16 17 21 24 25 27 28 26 24 25 27 28 29 30 31 30 31 33 35 38 37 40 44 41 41 46 49 56 70 78 74 63 59 59 55 53 51 50 49 49 49 50 50 50 49 49 47 47 48 47 47 45 44 44 43 42 41 41 44 45 42 42 43 39 30 20 32 59 69 63 48 47 68 76 70 75 79 74 69
29 31 32 32 27 19 17 18 22 25 25 26 26 24 24 26 27 27 29 30 31 31 32 33 35 37 38 39 40 39 41 44 46 56 66 68 65 60 57 56 54 52 49 47 48 48 48 48 48 49 49 49 49 49 49 49 49 48 47 47 47 46 44 44 46 46 44 45 46 43 38 36 38 38 41 46 37 33 51 62 64 76 86 84 81
32 34 33 31 27 20 17 19 22 24 24 25 25 24 24 25 26 26 28 30 30 31 32 33 34 36 37 38 38 40 43 43 42 49 57 58 58 57 55 53 50 50 48 47 48 48 49 49 47 47 46 47 47 47 48 48 49 48 48 49 50 49 46 47 50 47 44 48 52 52 52 53 49 39 33 31 29 32 37 48 65 78 82 79 82
32 34 34 30 26 22 20 20 22 24 24 26 25 24 24 23 24 26 28 30 30 31 32 33 35 35 37 38 38 41 44 45 44 44 46 48 51 50 49 48 47 47 47 49 50 50 49 49 48 47 45 45 45 45 45 47 48 48 49 50 50 49 49 53 55 47 44 50 59 60 63 70 63 48 42 33 31 33 27 48 78 77 72 73 74
31 33 33 31 26 23 22 20 21 24 24 24 22 21 21 22 23 26 28 30 31 31 32 34 35 35 38 39 39 43 45 46 48 46 44 44 43 43 43 44 45 46 49 51 51 51 50 49 49 47 46 45 44 44 44 44 46 48 50 50 48 48 52 58 56 48 45 48 56 62 73 89 75 48 46 42 36 33 27 56 80 63 60 73 71
32 32 32 31 27 23 23 22 23 24 22 20 19 19 20 21 24 26 29 30 30 32 33 34 35 36 39 40 41 44 46 46 48 48 47 46 46 46 47 45 47 52 54 53 51 51 50 48 49 48 46 44 42 43 43 43 48 52 53 51 48 49 52 55 53 49 47 47 51 52 56 68 63 50 57 55 45 37 32 52 59 37 46 69 72
32 33 32 32 29 25 24 23 23 22 20 17 17 19 20 21 24 27 29 30 30 32 33 34 36 36 38 40 40 43 45 46 46 46 46 49 53 53 50 47 50 57 56 52 51 49 49 48 49 48 45 45 45 45 45 49 56 59 56 52 49 49 48 49 52 53 55 56 55 52 49 51 51 51 64 70 65 51 37 42 39 30 51 70 70
33 34 34 32 29 26 24 22 22 20 17 17 17 18 18 20 24 27 29 30 30 32 33 35 35 37 38 39 40 43 46 46 45 48 53 56 56 53 48 47 52 58 55 52 52 49 50 51 49 49 49 49 50 51 55 60 63 60 55 51 48 48 47 50 54 55 58 58 55 55 57 55 49 48 54 63 75 72 56 47 41 45 63 68 67
35 35 34 32 30 27 25 23 21 19 17 16 16 15 17 20 24 28 30 30 31 32 33 35 35 37 39 40 41 43 45 47 48 52 55 52 50 50 48 49 53 56 55 55 54 51 51 52 51 53 54 53 57 62 64 63 58 53 51 49 48 48 50 55 60 59 57 58 59 63 66 63 60 60 59 61 72 79 68 54 52 58 62 60 64
38 38 34 31 30 27 26 24 22 20 17 15 15 15 18 22 26 29 30 30 30 32 33 35 35 37 40 41 42 42 41 44 48 48 48 47 49 51 50 50 54 56 56 56 54 51 51 52 54 57 57 59 65 66 61 56 52 51 51 50 49 48 48 53 62 65 63 63 65 70 74 75 74 71 69 68 67 69 68 61 59 61 62 62 63
41 41 37 33 32 28 27 25 22 20 18 16 16 17 20 23 26 28 29 30 30 32 34 35 36 37 39 40 40 41 41 43 47 47 47 48 50 51 50 51 55 56 57 56 53 51 52 54 57 59 59 61 63 60 56 55 55 54 54 53 52 52 50 50 54 56 54 54 58 65 72 76 75 73 71 70 69 71 74 71 64 61 64 64 60
43 43 41 37 34 31 29 26 24 22 20 19 17 18 22 23 27 29 29 30 30 32 34 35 36 36 38 40 39 40 41 43 46 47 47 49 51 51 51 53 55 57 57 56 53 52 54 55 57 58 59 59 59 58 58 59 58 58 58 57 56 56 54 52 51 50 48 50 52 56 68 78 80 78 75 73 75 75 75 74 71 67 68 63 54
45 45 42 40 37 33 30 28 26 25 22 21 19 19 22 23 26 29 28 29 30 32 34 35 36 36 37 40 40 41 42 44 46 46 48 50 52 52 53 55 57 58 57 54 52 54 56 57 58 59 59 58 60 61 62 62 63 63 63 62 61 59 58 55 54 53 53 54 51 51 66 86 90 85 84 85 84 81 79 84 81 73 70 64 56
45 45 42 39 36 33 31 29 27 27 24 23 21 20 22 25 26 28 28 28 30 32 35 36 35 36 37 40 41 41 43 45 48 49 50 51 52 53 55 57 58 58 56 53 53 55 57 58 59 58 58 60 62 63 64 65 66 67 67 67 66 64 62 59 58 57 55 54 52 52 61 78 87 86 83 82 83 86 88 88 85 81 76 68 63
42 43 42 39 36 33 31 29 27 27 25 24 23 22 24 26 26 28 29 28 31 34 34 36 35 35 38 40 42 41 42 46 47 49 51 51 51 53 57 59 59 57 53 52 55 57 58 58 57 57 59 62 63 63 65 67 69 70 70 71 71 71 68 65 62 60 58 56 54 52 54 63 74 77 72 67 70 83 89 86 87 91 87 76 70
37 38 39 38 36 34 31 30 27 26 25 24 23 23 24 25 25 27 28 28 31 34 34 35 34 35 38 40 41 41 44 50 52 54 56 57 56 58 60 59 56 53 51 54 56 56 57 57 56 58 61 63 63 64 67 70 72 74 74 74 75 75 74 70 67 63 60 59 56 54 53 53 55 55 57 57 57 65 73 77 86 92 93 87 78
33 34 34 33 32 32 31 29 27 25 24 23 22 21 21 22 25 27 28 30 33 34 34 34 35 36 39 39 41 42 44 48 52 55 58 60 61 60 57 54 52 51 53 55 54 54 55 55 57 61 63 63 63 66 70 74 77 78 78 78 78 77 76 73 71 67 63 61 59 57 56 54 53 52 55 56 53 54 57 69 86 87 85 90 88
32 32 31 30 28 28 28 26 25 24 23 22 21 20 19 20 23 25 28 30 30 32 34 34 35 37 39 40 42 44 45 46 49 52 54 55 55 53 51 51 51 52 53 53 53 54 54 55 60 64 63 62 64 69 74 78 81 82 81 81 80 79 79 76 74 70 67 64 62 60 58 57 56 56 58 58 56 55 52 64 84 83 79 87 87
31 30 29 30 27 26 25 23 23 22 21 22 21 21 21 21 23 24 26 27 27 29 32 33 35 37 39 41 42 44 45 47 49 51 51 51 50 49 50 50 51 52 52 52 54 54 54 58 63 64 62 63 67 73 78 81 83 85 84 83 83 82 81 79 77 74 71 68 64 62 59 57 55 52 54 54 52 51 47 53 68 72 76 86 83
30 29 29 29 26 25 24 22 22 21 21 22 22 22 22 22 24 24 26 27 29 31 32 33 36 38 40 41 43 44 44 47 49 50 50 50 49 50 50 50 51 52 53 55 55 54 56 62 65 63 63 67 73 78 81 83 85 87 87 86 85 85 84 82 80 77 75 72 68 65 62 59 57 55 53 52 51 50 47 45 49 53 60 72 79
28 28 28 27 26 24 22 21 21 20 21 22 22 24 23 24 25 24 26 28 29 31 32 34 36 39 41 42 43 45 45 47 49 50 50 50 49 50 50 51 52 53 56 57 55 56 61 65 64 62 66 72 79 82 81 83 86 89 89 89 88 87 87 85 84 82 80 77 73 70 67 63 60 58 55 54 52 50 50 46 43 44 46 56 72
28 28 27 26 25 23 21 20 19 20 21 21 23 24 24 25 25 25 27 28 28 30 32 34 37 39 41 43 44 45 46 47 49 50 50 49 49 50 50 51 53 56 58 57 57 60 63 63 63 66 72 78 82 82 82 86 91 93 92 92 91 90 90 89 88 86 84 82 79 75 73 69 66 62 58 55 54 53 58 59 55 54 54 55 63
31 30 29 28 26 23 21 19 18 19 20 21 23 24 25 25 25 26 28 27 27 30 32 34 37 39 40 42 44 45 46 48 49 49 49 49 50 50 51 53 54 57 58 57 59 62 62 62 67 72 78 81 83 84 88 93 96 96 95 94 93 93 94 93 92 91 89 87 85 81 79 75 71 67 63 59 58 57 58 62 61 61 67 71 70
33 33 33 33 30 28 25 21 20 20 20 22 23 25 26 27 26 27 27 26 27 30 33 36 38 39 41 43 44 45 47 48 49 49 49 49 50 52 53 54 56 58 58 58 60 62 63 67 73 78 81 82 85 89 94 98 99 98 97 97 97 97 97 97 96 95 94 92 91 89 86 84 79 74 71 67 64 62 58 58 58 55 56 65 73
35 35 36 38 38 36 31 26 24 22 21 22 23 25 27 28 28 27 27 28 29 31 34 37 39 41 43 44 44 45 47 49 49 50 50 51 52 54 55 56 59 59 58 60 63 64 68 74 77 80 82 84 89 95 99 101 100 100 100 99 100 100 99 100 99 97 96 96 96 95 92 91 88 83 79 75 71 68 65 62 62 60 56 55 60
36 37 38 39 41 41 37 32 29 25 23 23 23 25 27 27 28 28 28 29 30 32 35 38 40 42 44 45 45 46 48 49 50 51 52 53 54 56 58 58 59 59 60 64 66 67 73 79 80 80 83 90 97 100 101 101 100 100 100 100 101 101 100 100 100 98 95 95 96 96 95 95 95 91 87 84 79 74 71 69 66 65 63 61 61
39 40 41 42 42 42 40 37 33 30 27 25 24 25 26 27 28 28 29 30 31 34 37 39 41 43 46 46 46 48 49 50 51 52 53 56 58 60 61 60 59 62 65 67 69 72 77 80 80 83 90 97 101 101 100 101 101 100 100 101 100 100 100 100 101 99 96 94 92 92 93 94 96 95 92 89 86 82 79 75 72 69 66 67 70
42 43 44 45 44 43 43 41 38 35 31 28 26 26 26 26 26 28 31 33 34 37 38 40 43 46 47 47 48 50 51 51 53 54 56 59 62 65 64 61 61 64 66 69 73 77 79 80 84 90 97 101 100 100 101 101 101 100 100 101 100 100 101 100 101 100 97 96 95 93 94 94 95 95 94 91 89 87 84 80 77 75 72 72 75
46 46 47 47 46 46 46 43 42 40 36 33 29 28 27 28 29 31 33 34 35 38 39 42 46 48 49 49 51 53 52 53 55 57 60 62 64 68 68 64 63 65 68 74 78 79 81 84 88 94 99 100 99 101 101 100 101 101 99 100 99 99 100 100 100 100 99 99 99 99 97 96 96 95 95 95 94 91 90 86 81 79 77 78 79
50 50 50 49 49 50 48 46 45 44 42 39 35 31 30 30 31 32 34 36 37 38 41 44 47 49 50 52 55 56 54 55 57 58 62 64 65 69 71 69 68 70 74 79 80 82 85 89 94 96 98 100 100 101 101 100 100 101 99 100 100 99 100 100 100 99 100 100 99 100 100 98 99 99 98 100 100 98 97 93 88 83 80 79 80
54 54 54 53 53 52 50 50 49 48 47 44 39 35 32 30 31 33 35 37 37 39 42 45 48 50 53 56 57 57 56 57 59 60 62 64 66 70 73 73 74 76 78 81 83 86 90 95 99 100 100 101 100 99 101 101 100 100 100 99 100 100 99 100 100 99 100 100 99 100 100 100 100 100 100 100 100 101 101 99 98 94 89 85 82
58 58 58 58 57 55 54 55 53 51 49 45 41 38 34 32 32 33 36 38 38 41 44 46 50 52 55 59 59 58 58 59 61 62 63 64 68 74 77 77 78 79 81 84 88 91 95 101 102 100 101 100 93 92 99 102 100 100 101 100 100 100 100 100 100 99 99 100 100 100 100 100 100 100 100 100 100 100 100 100 100 100 98 96 92
60 61 62 60 58 58 57 57 56 53 50 46 42 38 34 33 33 34 37 38 40 43 45 48 52 55 58 60 59 59 60 60 61 63 64 67 72 78 80 79 79 83 86 89 92 95 99 102 102 100 100 96 88 86 94 101 101 99 100 100 100 100 100 100 100 100 100 100 100 100 100 100 100 100 100 100 99 99 98 99 100 100 100 100 99
62 63 63 61 60 60 60 60 58 55 52 48 43 38 35 34 34 35 38 39 41 45 48 50 55 58 60 61 60 60 60 61 63 64 65 69 74 78 80 80 82 87 90 92 96 99 101 102 101 100 99 95 89 84 89 97 101 100 100 100 100 100 100 100 100 99 98 97 98 100 100 100 100 100 100 100 100 99 98 98 98 98 97 97 98
65 65 64 64 64 64 63 62 60 58 55 50 44 40 37 35 35 37 39 40 43 47 50 54 58 61 63 62 61 61 62 64 64 65 68 71 75 79 81 83 86 90 92 95 98 102 103 100 98 97 96 94 90 86 90 98 101 100 100 100 100 100 99 99 101 97 90 89 94 99 100 99 100 100 99 100 100 100 100 100 100 98 94 92 91
66 65 66 66 66 66 66 64 64 62 57 53 48 42 38 37 37 39 41 43 47 51 55 58 61 64 64 63 62 63 64 65 66 68 72 75 79 83 85 87 90 92 95 98 101 102 101 95 92 93 96 96 90 86 91 100 101 100 100 100 100 100 100 100 100 95 86 81 85 95 100 100 100 100 100 100 100 100 100 101 100 100 98 96 93
64 63 65 67 67 68 68 67 68 66 61 58 52 44 40 40 40 43 45 47 52 55 58 62 64 65 65 64 64 66 67 68 69 71 75 79 82 85 88 91 93 96 100 102 100 99 97 94 93 93 96 98 91 83 88 98 101 100 100 100 100 100 100 99 97 96 93 85 80 86 95 99 99 100 99 99 100 100 100 100 100 100 100 100 97
64 65 66 68 69 70 72 72 72 70 67 63 56 47 43 43 45 47 49 53 58 58 60 64 65 64 65 65 65 68 70 71 72 73 76 80 85 88 91 94 96 99 103 101 96 95 96 97 97 94 96 100 95 86 89 98 101 100 100 100 100 100 99 98 98 98 94 86 78 80 91 99 101 99 98 99 100 100 99 100 100 99 100 100 98
64 67 69 70 72 73 74 75 75 74 72 67 59 50 46 47 48 50 53 59 60 57 58 64 64 64 67 67 66 70 72 72 74 76 79 83 87 90 94 98 100 100 99 95 93 95 99 99 98 96 96 100 100 92 90 96 100 100 100 100 100 99 98 98 100 100 92 82 77 78 85 95 98 94 92 94 98 98 98 100 100 99 101 100 95
66 69 70 71 74 75 76 77 77 77 75 71 62 53 50 52 51 55 62 61 52 50 57 62 64 67 70 68 69 72 72 73 75 77 81 84 88 92 96 100 102 99 96 97 97 100 102 99 96 96 95 97 98 92 85 90 99 101 100 100 98 95 94 96 99 101 95 86 78 74 75 82 89 91 89 89 89 87 88 93 98 100 101 96 90
70 71 72 74 75 75 76 77 77 78 77 73 65 58 56 55 56 62 65 54 45 52 62 65 68 72 73 71 73 74 73 74 75 77 82 87 90 94 98 101 101 98 99 102 102 102 103 98 94 94 95 94 94 90 86 91 100 102 98 96 93 89 90 93 93 94 91 85 79 77 77 79 85 90 90 88 86 84 86 93 99 101 99 95 93
72 72 74 76 75 74 76 77 77 79 79 76 68 62 60 60 62 65 58 49 52 61 65 67 73 76 75 75 76 76 76 76 77 79 85 91 95 98 99 98 98 99 101 104 102 101 101 98 93 93 93 91 90 92 93 95 99 100 95 90 88 86 88 92 95 96 95 93 91 92 93 96 96 92 89 87 84 84 89 95 98 97 96 94 94
74 74 75 76 76 76 77 77 77 79 81 79 72 67 66 66 66 63 56 55 62 64 64 70 76 77 77 78 78 79 78 78 80 83 87 93 98 99 96 94 95 99 103 103 102 101 101 99 95 92 90 90 92 97 100 99 98 98 92 84 83 86 90 95 100 99 98 98 97 96 97 98 92 85 81 82 82 84 89 95 96 96 95 93 93
75 76 77 76 76 77 77 77 77 79 81 82 77 72 72 72 69 65 62 64 65 64 68 76 79 79 81 81 80 81 81 81 83 86 90 96 99 97 94 93 96 101 103 101 100 102 104 103 100 94 89 91 98 101 100 96 91 87 83 81 84 89 92 94 98 99 99 98 96 93 91 89 85 84 86 89 91 92 94 96 97 97 98 99 98
76 77 78 76 76 77 77 78 77 78 81 84 83 79 77 76 73 71 70 69 68 70 75 79 81 83 84 83 84 84 84 85 86 87 90 96 97 95 92 94 99 103 103 100 101 103 103 102 102 98 92 95 101 100 93 86 76 69 72 80 87 93 95 94 95 97 96 94 92 90 91 92 92 94 93 91 89 87 86 90 92 95 99 100 96
79 80 77 75 74 74 77 78 77 78 83 86 86 85 83 80 78 77 76 73 72 76 81 83 85 87 86 86 89 89 89 90 89 88 91 94 93 92 92 96 102 104 101 100 102 103 101 101 101 100 98 99 100 95 85 76 67 63 66 76 87 95 95 92 91 93 94 95 94 92 92 93 90 86 82 82 83 83 84 90 93 95 98 97 91
82 81 76 73 73 74 77 78 78 81 87 89 88 87 86 84 83 82 81 78 77 80 84 87 89 91 90 89 90 92 93 94 92 92 94 95 92 91 95 101 104 103 102 102 102 101 101 101 101 100 100 100 97 89 78 68 65 67 71 79 91 97 92 86 88 94 98 100 97 93 90 88 85 83 83 86 88 89 90 93 96 96 98 99 97
84 78 71 70 72 75 76 78 81 87 90 90 89 87 85 85 85 85 86 85 83 83 85 88 91 92 91 91 91 92 95 96 95 94 93 93 91 92 97 102 100 98 99 99 99 101 99 97 99 101 100 100 98 89 74 65 70 77 82 88 96 96 90 87 92 99 101 100 96 92 89 87 87 87 89 91 93 95 96 97 98 98 99 100 100
79 71 69 71 75 77 77 81 88 91 90 90 89 85 82 84 85 87 90 89 88 87 88 91 93 92 92 93 94 95 96 97 97 95 90 88 89 91 94 95 93 92 93 91 92 93 89 87 94 99 99 101 100 89 75 74 84 90 92 95 97 94 92 95 99 101 99 96 93 90 89 89 90 91 91 93 94 94 94 94 95 96 98 99 99
72 70 71 75 77 79 83 88 90 89 89 91 88 82 82 85 87 90 93 92 91 92 94 95 95 94 95 97 97 97 98 99 99 95 91 89 91 93 95 94 89 87 90 93 93 88 84 87 96 100 100 100 98 92 86 87 92 93 94 96 96 95 98 101 100 97 95 93 93 94 93 93 94 94 95 97 97 96 95 95 94 95 97 99 99
72 73 76 79 81 82 86 87 86 88 92 90 84 82 85 89 90 93 96 95 93 96 97 96 96 96 96 98 99 99 100 102 101 95 91 90 93 96 98 98 94 92 95 100 100 95 92 94 97 100 101 95 89 89 90 89 90 94 97 99 98 98 101 100 94 91 92 94 96 96 95 95 96 96 98 100 101 101 100 98 96 95 97 99 99
Wind_Speed
19 20 24 25 25 25 22 22 22 22 23 22 22 22 20 18 18 18 18 17 18 18 17 17 17 17 16 14 14 16 15 12 8 6 5 7 9 11 11 11 11 12 12 11 10 9 9 8 7 7 7 8 8 9 10 10 11 12 13 14 16 19 21 21 22 25 24 21 23 24 21 17 6 1 4 4 9 12 10 11 13 13 13 13 14
14 18 23 25 26 25 23 23 24 25 25 25 24 23 21 20 20 19 18 18 17 17 16 16 16 15 15 14 15 16 14 11 10 7 7 9 10 11 13 13 13 13 13 12 12 11 10 10 10 10 10 11 11 11 11 12 13 13 14 15 13 14 18 19 21 21 18 17 17 16 17 16 7 6 7 6 13 15 10 11 14 14 13 13 13
12 15 20 24 27 26 25 26 27 28 27 26 25 23 22 22 21 19 19 19 18 17 16 16 15 14 14 14 14 15 13 11 11 10 10 12 13 13 14 15 14 14 13 12 10 10 10 11 12 12 12 13 13 13 13 14 14 14 14 14 13 14 14 14 16 16 16 18 14 6 7 8 7 9 10 16 19 14 11 12 12 12 13 15 15
13 13 16 22 25 26 28 29 29 29 29 29 27 25 24 23 21 20 20 20 18 17 17 16 15 14 14 13 13 13 12 11 11 11 11 14 16 16 16 15 15 13 11 10 10 10 10 11 12 13 13 13 14 14 14 14 14 14 13 12 12 14 13 10 10 13 16 15 8 3 4 4 3 6 14 23 19 12 14 12 9 11 15 16 16
14 13 14 18 23 27 30 31 30 30 32 32 29 27 26 23 22 20 20 20 19 18 17 15 14 14 14 14 14 12 12 12 12 12 11 13 14 14 14 13 12 10 9 10 10 11 12 12 13 14 15 15 15 15 15 14 14 13 12 11 11 12 12 10 9 11 14 11 5 3 3 2 2 6 13 15 13 16 19 9 6 12 17 17 18
13 14 15 17 23 27 29 30 31 33 35 33 30 28 25 23 22 21 21 21 20 19 17 16 15 15 14 14 14 13 13 14 13 13 13 14 14 13 12 11 8 8 9 11 12 12 13 13 13 15 15 15 15 15 15 14 14 13 12 12 12 11 10 12 12 12 11 7 5 5 7 8 6 7 7 6 12 19 14 6 9 17 19 17 16
12 14 16 17 21 24 27 31 34 35 35 32 29 28 26 24 23 23 23 22 21 19 17 17 17 17 16 16 16 15 16 16 15 15 15 14 13 12 12 10 7 8 11 11 11 11 12 12 12 13 13 13 13 13 13 12 11 12 12 12 12 12 11 13 13 13 10 6 7 9 14 14 10 7 3 3 8 11 9 13 18 20 19 16 13
10 12 13 17 22 25 28 33 35 36 34 30 29 28 26 25 24 24 23 23 22 21 19 18 18 18 18 17 18 17 18 18 17 15 14 13 13 13 12 10 8 10 12 11 9 9 10 10 10 10 10 10 10 10 9 9 11 12 13 13 13 12 12 12 12 12 11 10 10 11 12 13 13 12 11 8 4 4 9 16 19 18 16 13 10
11 11 13 18 24 28 32 33 34 34 32 30 30 28 26 26 25 25 24 24 23 22 21 20 20 20 20 19 20 20 20 19 17 15 15 15 15 14 12 10 10 11 12 10 9 9 9 9 9 9 9 9 8 8 9 10 11 12 12 12 12 12 11 11 12 12 13 13 12 12 11 12 14 14 15 13 6 4 6 8 12 16 15 14 11
10 12 16 21 25 29 31 30 32 33 31 30 29 27 27 26 26 27 27 25 25 23 23 22 22 21 21 21 22 22 21 20 18 18 18 17 15 14 12 11 11 12 12 11 10 10 9 9 9 9 9 9 8 9 10 11 11 11 11 12 13 14 13 12 12 12 12 13 13 13 12 10 10 9 10 12 9 8 7 6 9 11 11 14 15
9 10 16 23 26 26 26 28 32 33 31 30 29 29 28 28 28 28 28 27 26 25 24 24 24 24 24 24 23 23 22 21 20 20 19 16 15 15 14 12 12 12 12 12 12 11 9 9 9 9 10 9 10 11 11 11 11 11 12 13 14 15 15 14 14 14 14 14 14 14 14 13 12 10 10 11 9 7 6 5 7 10 11 15 18
9 8 12 16 19 21 23 27 31 30 29 30 31 30 29 29 29 30 30 29 27 27 27 27 26 26 26 25 25 24 23 23 23 22 20 17 16 16 14 13 13 13 13 13 13 12 10 10 10 10 10 11 11 12 12 11 12 12 13 14 15 14 14 14 15 16 15 15 15 15 16 16 16 15 14 14 12 10 8 5 6 10 10 13 20
8 9 10 10 12 17 22 26 29 29 31 33 32 31 31 31 31 31 32 31 29 29 29 29 28 27 27 26 26 25 24 24 24 24 22 20 18 16 15 14 13 13 13 14 14 12 11 11 11 11 11 12 12 12 12 12 12 13 13 13 14 14 14 14 15 16 15 16 16 16 16 15 15 15 14 14 13 12 11 6 6 10 9 11 17
9 9 9 9 12 18 22 25 28 30 33 33 33 32 32 31 31 32 33 32 30 30 30 30 30 28 27 27 27 26 25 25 25 24 23 22 20 17 16 16 16 15 15 15 15 13 13 13 12 13 13 12 13 13 14 15 14 14 14 14 14 14 14 15 16 17 17 17 17 17 16 14 13 12 12 12 11 11 10 8 7 8 9 11 13
9 9 10 12 17 21 23 24 27 30 32 32 32 32 32 32 33 33 34 33 32 32 32 31 30 28 27 27 27 27 26 26 25 25 24 23 22 19 18 18 18 18 17 15 15 13 14 15 14 14 14 14 15 16 16 16 16 16 16 16 16 15 15 16 16 16 17 17 17 18 18 17 15 14 14 13 13 12 12 11 8 5 6 8 7
9 9 11 15 20 23 23 25 28 29 30 31 32 33 33 33 33 34 35 34 33 33 33 32 30 28 27 28 28 28 27 25 24 23 21 21 21 20 20 20 20 19 17 16 15 15 16 16 16 16 15 15 17 17 17 17 17 17 17 17 16 15 15 16 16 16 17 17 17 18 20 20 20 19 18 17 15 14 13 13 11 7 5 5 5
10 10 11 14 18 21 24 27 28 29 30 32 34 35 34 34 33 34 34 33 33 33 32 31 29 28 28 28 28 28 28 26 24 23 22 21 21 21 21 21 21 19 18 17 17 17 17 17 17 17 16 17 18 17 17 17 16 16 17 17 17 16 16 16 16 16 17 17 17 18 19 20 20 19 18 17 15 15 14 13 13 12 10 6 4
11 11 11 14 17 21 25 28 30 32 33 34 35 35 34 34 34 34 34 34 34 33 32 31 30 29 29 29 28 28 28 27 26 25 25 25 25 24 23 22 21 19 19 19 19 18 18 17 17 18 18 19 18 17 17 16 16 16 17 17 17 16 16 17 17 17 17 17 18 18 19 19 20 19 18 17 15 15 15 14 13 14 14 10 7
11 11 11 12 16 22 26 28 31 32 33 35 34 33 33 34 35 35 35 35 34 33 32 31 30 30 29 29 28 28 27 26 25 24 24 25 25 24 23 23 22 21 21 20 19 18 18 17 18 19 20 19 18 17 17 16 16 16 17 18 17 17 17 18 17 17 17 18 19 20 20 20 21 21 20 19 18 17 17 17 16 15 15 13 10
10 11 11 11 16 23 26 27 30 31 32 33 32 32 34 34 35 35 36 35 33 32 32 31 30 30 29 29 28 27 27 26 25 24 24 25 25 23 23 23 23 22 21 20 20 18 17 18 18 20 20 20 18 17 17 17 17 17 18 19 18 17 18 19 18 17 17 18 19 20 21 21 20 20 21 20 20 19 19 20 20 19 18 15 13
12 12 12 12 16 23 26 27 28 28 29 30 31 33 34 34 35 37 36 35 34 34 33 32 31 29 29 29 28 27 26 26 25 25 25 25 24 24 24 24 23 23 21 21 20 19 18 18 19 20 20 19 19 18 18 18 18 19 18 19 19 19 19 19 19 18 18 18 19 21 22 22 22 21 22 22 21 21 20 21 21 21 21 19 15
13 13 13 13 16 21 24 24 25 25 27 30 32 33 34 36 37 37 37 37 36 35 34 33 32 30 30 29 27 26 25 25 25 25 26 26 25 25 25 24 24 23 22 22 21 19 19 19 19 20 20 19 20 20 19 18 18 19 18 18 18 19 19 19 19 19 19 19 20 21 22 23 22 23 23 23 22 20 18 18 19 19 19 20 18
13 13 12 13 17 22 22 22 23 24 27 30 32 34 37 38 38 37 37 38 37 36 35 33 32 31 30 29 27 26 25 25 25 26 26 26 26 26 25 25 25 24 23 21 20 20 19 19 19 19 19 20 21 20 18 17 17 18 18 18 18 18 19 19 20 20 20 20 20 21 23 23 22 23 24 24 23 22 21 19 19 19 18 18 17
14 13 12 13 17 19 18 20 22 23 26 28 30 33 36 38 38 38 38 38 38 36 34 32 31 30 30 29 28 26 24 25 26 26 27 27 27 27 26 25 25 24 22 21 20 20 20 19 19 19 20 21 20 18 16 16 16 17 19 20 20 20 21 21 21 22 21 21 22 23 23 23 23 24 25 25 25 24 24 23 22 22 21 19 17
16 15 14 14 14 13 14 18 21 23 26 27 29 31 33 35 38 40 38 36 36 36 34 32 30 30 29 29 29 26 25 26 26 27 27 27 27 27 26 25 23 23 22 21 21 20 20 19 20 20 21 21 20 17 16 15 16 17 19 20 20 21 22 23 23 23 22 23 23 24 24 24 24 25 26 26 26 25 25 24 23 22 22 21 19
17 17 16 15 14 12 14 19 22 24 26 26 28 31 33 34 37 39 39 36 35 34 33 32 31 30 30 30 29 27 26 27 27 27 26 26 26 26 25 24 23 22 22 21 21 21 20 20 21 21 21 21 19 18 17 16 16 16 17 18 19 20 21 22 23 23 22 23 23 24 24 24 24 26 27 27 27 26 26 25 24 23 22 21 21
15 15 15 17 17 15 17 20 23 25 26 27 28 30 32 35 37 37 37 36 35 33 33 32 32 31 30 30 30 28 27 27 26 26 25 24 23 23 23 23 22 22 21 21 21 21 21 21 21 21 20 19 18 17 17 17 17 17 17 18 19 19 21 23 23 23 23 23 24 24 24 25 26 27 28 28 28 28 27 27 26 25 23 22 21
14 15 17 18 19 18 18 22 25 26 26 27 28 29 32 36 38 36 35 35 34 33 33 32 32 31 31 31 29 28 27 25 25 24 22 21 20 20 21 22 21 22 22 21 21 22 22 22 22 21 20 19 19 19 19 20 20 19 19 19 20 21 22 23 23 23 24 24 24 25 25 26 26 27 27 28 28 28 28 28 28 27 25 23 22
17 18 19 18 19 19 19 23 27 27 26 27 27 28 29 32 34 34 34 35 34 33 33 32 31 31 31 30 28 26 25 24 23 21 20 19 18 18 20 21 21 22 22 21 22 22 23 23 23 22 21 21 21 22 22 22 21 20 18 18 19 19 21 23 24 25 26 26 27 27 28 27 27 27 27 27 27 27 28 29 29 28 26 25 23
18 19 19 18 18 19 20 23 27 28 28 28 27 27 27 28 30 31 33 34 34 33 33 32 32 32 31 28 26 25 24 23 23 21 19 18 18 19 20 21 21 21 21 21 22 22 23 23 23 22 22 23 23 23 23 21 19 18 18 18 20 21 22 24 26 28 30 30 30 29 30 29 28 27 26 26 26 26 27 28 28 27 26 25 24
20 19 18 18 18 19 19 21 25 30 32 30 29 28 26 27 28 29 31 33 33 34 34 33 32 31 29 27 25 24 24 24 23 22 21 20 19 20 21 21 20 21 21 21 22 23 23 23 22 21 21 22 23 23 21 19 19 19 19 20 22 24 25 27 29 31 33 33 32 30 30 30 29 28 27 25 24 25 25 26 26 26 26 26 25
20 19 19 19 20 19 19 22 27 33 33 33 34 30 25 26 28 29 30 31 33 34 34 34 32 30 28 26 25 24 24 23 22 22 21 21 20 20 21 21 21 21 21 21 22 22 22 22 21 21 22 23 25 24 22 21 21 21 20 20 22 23 24 26 29 32 33 33 32 30 28 27 28 28 27 26 25 25 25 25 25 26 26 27 28
18 18 19 19 19 20 23 26 30 33 34 36 37 32 28 28 28 28 30 32 34 35 34 33 31 30 28 26 25 24 24 24 23 22 21 21 20 20 21 21 21 20 21 21 21 22 21 21 21 22 23 24 25 24 22 21 21 21 20 20 21 22 23 24 27 29 27 26 27 28 27 26 27 26 26 26 25 25 24 24 25 25 25 26 27
17 18 18 17 18 22 27 31 32 34 36 39 39 35 31 28 25 27 30 33 34 34 33 32 30 29 29 27 26 26 25 24 23 22 22 21 21 21 21 21 20 20 20 21 21 20 20 21 21 22 24 25 25 23 20 19 20 21 20 19 20 22 23 26 28 25 19 16 18 21 23 24 24 24 24 24 24 24 24 24 24 25 27 27 26
17 18 18 19 22 26 29 33 36 38 39 40 40 36 31 25 23 26 30 33 35 33 32 31 30 29 28 28 28 27 26 25 24 23 22 22 22 21 21 20 20 20 20 21 21 21 21 22 22 23 24 24 24 21 18 19 20 20 19 18 19 22 25 26 24 17 12 11 12 14 18 20 21 22 22 21 21 22 22 23 24 25 26 28 29
17 18 19 22 26 28 30 34 37 39 39 39 40 36 28 23 22 25 29 32 33 32 30 30 30 29 29 29 28 28 27 26 24 22 22 22 22 21 20 19 19 19 20 20 20 21 22 22 22 21 22 23 22 18 17 19 19 19 17 17 19 21 22 19 15 11 10 10 9 10 13 15 17 18 18 18 19 19 20 22 24 24 25 26 28
19 22 25 28 30 30 32 34 35 37 37 37 38 34 26 22 21 23 27 29 30 31 31 31 30 31 30 29 28 27 26 25 24 23 23 22 22 21 20 19 18 19 19 19 20 20 20 20 20 19 20 22 21 17 15 17 18 17 16 16 18 18 14 12 11 10 9 9 9 9 10 12 14 14 15 15 17 19 20 21 22 23 24 25 27
24 27 30 32 33 33 35 35 34 35 36 37 37 32 25 22 21 23 26 28 29 32 33 32 31 31 30 28 28 26 25 25 24 24 24 22 21 20 19 18 17 18 18 19 20 20 19 19 19 18 18 19 19 16 13 15 17 16 14 15 16 14 10 10 10 9 9 10 11 10 11 13 14 13 12 13 15 18 22 25 25 25 25 26 28
31 32 32 35 36 36 37 36 33 34 36 37 35 29 23 21 22 24 26 28 31 36 36 34 32 31 29 28 27 26 25 24 24 24 23 21 20 19 18 17 16 17 18 19 19 18 18 18 18 17 17 17 18 17 14 14 15 14 13 14 13 10 9 10 11 10 11 12 13 12 12 14 15 14 14 15 16 17 20 25 27 29 30 30 30
32 34 34 36 36 36 35 34 32 33 35 36 33 26 21 22 24 23 23 29 37 40 36 32 30 29 27 27 27 26 25 24 23 23 22 20 19 18 17 17 16 17 17 17 16 16 17 18 18 17 17 17 18 17 13 12 12 13 13 12 10 9 10 12 12 13 13 14 15 16 15 15 16 17 16 17 18 19 21 23 25 29 33 33 31
30 33 33 32 34 35 35 33 33 33 33 34 31 24 21 24 23 20 24 34 40 36 30 28 28 27 26 27 26 25 25 24 23 22 20 19 18 17 17 16 16 15 15 15 15 15 17 18 18 17 17 17 16 15 12 9 10 12 11 10 9 11 11 13 15 16 17 18 18 19 18 18 18 18 18 18 20 21 22 22 22 22 25 26 26
30 32 31 30 32 35 35 34 34 33 32 31 27 22 23 23 20 23 31 37 34 28 26 28 28 27 27 27 26 25 24 22 21 20 19 18 17 17 17 16 15 15 14 15 15 15 16 17 17 16 17 16 14 12 9 7 7 10 10 9 11 13 12 14 16 17 17 17 17 17 17 15 14 15 18 20 23 23 23 24 23 22 23 24 25
27 29 31 32 32 33 34 36 36 33 31 29 24 22 23 21 21 29 36 33 27 26 28 28 27 28 28 27 25 24 23 22 20 19 19 18 17 17 16 16 15 15 14 14 14 13 14 15 17 16 15 12 9 7 6 6 6 9 10 11 12 12 12 14 15 16 16 16 16 16 15 14 15 19 23 24 24 23 22 21 20 20 20 21 22
26 28 31 32 32 33 35 37 37 33 31 28 23 21 23 22 25 33 33 27 26 27 27 28 28 28 27 26 25 24 22 21 20 19 18 18 17 16 16 16 15 14 14 13 12 11 11 12 15 15 12 8 3 2 4 6 7 8 10 12 12 11 12 13 15 16 16 15 16 16 16 18 20 21 21 19 18 17 16 15 16 16 16 17 16
28 29 31 32 34 35 35 36 37 34 31 27 22 20 22 25 31 34 29 26 26 26 26 28 29 28 27 25 24 23 22 21 20 19 19 19 18 16 16 16 15 14 14 13 11 10 10 10 12 14 12 6 1 2 5 6 8 11 11 11 10 11 11 12 13 15 15 15 15 16 15 15 15 15 15 16 16 17 17 17 17 17 18 19 20
28 28 32 35 36 37 35 35 37 36 30 25 22 20 22 28 34 33 28 25 25 25 27 28 28 28 26 25 24 23 22 21 19 19 19 19 18 17 17 16 15 14 14 13 11 10 9 9 11 13 10 5 4 6 8 9 12 12 11 10 10 10 10 11 13 14 14 14 14 13 13 13 14 16 18 19 19 20 20 18 17 17 19 21 22
27 30 36 38 36 35 34 35 37 35 29 25 24 23 24 29 33 32 28 24 24 25 27 28 28 27 26 26 26 24 23 21 20 19 19 18 18 17 17 16 16 15 14 13 12 11 9 9 10 10 8 6 7 9 10 12 12 9 8 10 11 9 9 12 14 13 12 10 10 10 12 15 17 18 18 17 16 17 16 15 15 15 15 15 15
29 35 40 39 35 34 35 36 34 30 27 26 26 27 30 31 32 31 27 23 23 26 28 29 28 27 27 27 26 25 23 22 21 21 20 20 19 19 20 20 18 17 16 15 14 13 12 11 10 9 8 8 9 9 10 11 9 8 10 13 11 9 11 13 12 9 6 5 7 10 12 14 15 14 13 12 11 11 10 9 9 9 9 9 9
32 38 40 37 35 37 40 37 30 26 27 28 27 31 34 33 33 31 25 22 24 26 27 27 27 27 27 26 26 25 23 22 22 21 21 21 20 20 21 22 19 17 16 15 14 14 12 11 11 11 10 9 9 9 10 11 11 11 13 12 9 10 10 7 3 3 4 6 10 11 10 10 9 8 7 7 7 7 6 6 6 6 5 5 5
36 38 38 37 39 42 41 33 28 29 29 27 29 34 36 34 33 31 24 23 25 25 25 25 26 27 28 27 26 25 23 22 21 21 19 19 19 19 19 19 17 15 14 14 14 13 11 11 14 14 11 9 8 9 11 12 12 10 9 8 8 7 3 1 1 5 8 9 8 6 5 5 5 5 6 6 7 8 7 6 6 5 5 5 5
36 36 36 39 42 42 39 35 34 32 27 27 33 36 35 35 35 31 25 24 24 23 23 25 27 28 29 28 27 25 24 22 21 20 19 18 18 17 17 17 16 14 13 14 15 15 13 14 15 12 7 6 8 10 11 11 10 7 6 8 7 4 2 2 7 9 7 4 2 1 2 3 3 5 7 7 8 9 9 9 9 8 7 6 7
Wind_Direction
255 252 249 243 234 235 240 241 241 241 244 247 249 255 263 268 272 279 287 291 296 303 307 311 313 313 314 312 309 311 314 316 309 293 298 303 298 295 295 297 302 310 316 319 324 325 322 319 315 312 314 320 324 332 337 338 337 337 339 339 339 335 335 341 344 345 346 346 343 340 344 349 343 260 292 306 352 1 13 13 1 354 344 328 311
259 251 247 240 232 232 236 237 236 237 242 245 249 255 261 264 268 277 284 286 291 298 300 305 309 309 305 303 306 308 308 310 301 284 284 290 287 286 290 292 296 305 310 313 316 317 316 313 312 311 311 315 315 316 321 325 326 330 334 338 341 339 336 337 340 349 354 346 341 335 339 348 338 311 309 311 337 344 356 7 1 356 356 353 339
252 247 243 236 229 229 233 234 235 239 244 247 249 253 257 259 266 274 280 282 286 291 294 300 305 305 298 297 303 303 302 305 297 282 275 279 280 280 284 288 292 299 306 309 308 308 309 308 309 309 310 314 314 312 315 319 322 326 331 336 338 336 336 335 336 349 353 345 344 334 334 344 336 340 335 325 331 337 343 358 4 357 357 359 357
252 248 241 233 229 228 229 231 234 237 241 244 245 249 254 257 264 271 276 278 281 284 289 294 298 298 294 294 299 298 296 299 296 286 275 273 275 277 280 284 288 294 299 299 297 298 298 300 303 302 303 309 311 313 315 317 321 323 326 329 332 334 335 332 326 334 342 344 343 318 341 351 321 347 336 326 331 335 335 357 19 5 2 359 357
252 251 241 230 229 229 229 231 233 235 238 242 245 249 253 258 263 269 272 273 275 279 283 286 288 289 288 290 294 293 290 290 288 287 284 280 281 283 286 287 289 289 288 286 288 292 292 293 296 296 297 300 303 308 309 311 315 317 318 319 325 330 330 324 314 322 332 327 300 290 349 1 287 339 336 325 327 328 328 344 14 360 2 356 347
247 250 248 234 230 231 231 231 231 233 238 243 248 251 253 257 261 264 266 268 271 274 277 278 278 281 280 281 285 282 280 280 278 281 285 287 289 292 294 293 287 279 279 284 288 291 292 293 294 294 296 298 300 303 304 307 310 310 311 313 317 319 318 319 315 321 329 306 262 259 274 276 290 335 341 304 313 324 325 316 318 334 346 347 340
245 247 248 240 234 231 230 231 229 232 240 245 248 250 251 255 257 259 262 264 268 270 271 271 271 273 272 273 277 274 272 274 276 280 283 286 287 287 290 289 277 275 282 287 290 292 294 295 295 296 298 299 300 301 303 306 305 303 307 310 312 311 310 313 314 320 326 292 264 273 273 270 275 292 279 264 312 319 308 306 313 324 335 339 336
244 245 244 240 236 231 231 232 232 235 242 245 245 248 251 253 255 256 258 261 264 266 266 266 267 269 268 269 271 270 269 273 277 279 278 278 279 279 284 285 275 276 284 290 291 294 299 300 300 301 302 302 302 303 302 299 296 298 304 308 309 310 310 310 307 309 310 297 289 287 274 268 272 268 254 248 276 302 301 309 314 320 326 331 336
243 243 243 241 237 235 236 237 237 240 243 244 245 250 252 252 252 252 253 257 261 262 262 264 264 265 265 264 266 268 269 272 273 272 269 271 274 274 279 282 275 276 284 289 290 294 299 300 303 305 304 305 304 301 293 289 294 300 305 308 308 309 310 308 305 303 302 298 293 288 280 276 273 262 250 245 239 264 291 308 314 318 320 318 320
244 242 245 245 243 242 242 241 242 243 243 245 247 248 248 247 247 248 250 254 258 259 259 260 261 260 259 259 262 266 268 269 269 268 270 271 269 268 272 273 269 274 280 283 285 291 294 295 298 299 299 301 295 288 289 292 297 300 300 301 301 301 302 301 301 300 300 298 294 288 284 277 270 260 250 244 239 248 262 283 305 315 317 309 305
251 247 248 250 250 249 246 243 243 243 243 243 243 243 243 244 244 245 249 253 255 256 255 256 258 257 256 257 260 263 265 266 265 266 268 264 259 262 267 265 263 268 273 275 280 287 289 286 288 290 291 291 287 288 292 295 295 293 292 292 293 296 296 294 292 292 292 293 293 289 284 275 265 259 254 248 243 249 261 276 293 301 303 298 300
257 253 251 252 252 249 243 241 242 240 239 238 238 239 240 241 241 243 247 250 251 253 252 253 255 255 256 257 258 261 261 260 260 263 264 258 254 260 263 261 261 263 264 269 277 282 281 279 281 284 286 286 287 290 291 291 291 290 288 289 291 291 291 290 289 289 289 289 288 289 289 281 268 263 263 260 257 264 270 271 285 297 300 294 297
260 256 254 251 247 244 239 238 239 236 235 236 235 236 237 238 239 241 245 248 249 250 249 250 252 254 255 256 257 259 258 258 259 261 261 257 254 255 254 253 254 255 258 267 275 278 274 273 275 278 281 284 286 287 288 289 288 287 286 286 286 286 285 285 283 284 285 284 285 286 286 284 275 268 264 262 263 266 269 270 281 286 286 289 295
260 256 255 250 245 243 240 238 237 236 235 235 234 235 235 236 237 239 244 247 246 247 247 248 251 254 256 256 257 257 256 255 256 258 259 257 255 252 247 248 250 253 260 268 272 274 271 269 271 275 280 282 281 282 285 286 284 282 281 280 279 279 278 277 277 278 280 279 281 281 278 278 281 280 274 271 275 273 267 268 275 280 279 285 291
263 256 255 252 250 247 244 242 239 238 237 235 234 234 233 234 236 237 241 244 243 244 245 247 250 254 256 256 256 256 255 255 256 257 257 257 255 251 246 247 251 256 262 266 267 269 269 269 272 276 279 278 279 284 286 285 283 280 279 278 277 275 273 272 272 274 275 275 276 276 274 274 275 280 282 280 278 275 271 269 272 280 282 284 288
265 257 256 255 254 251 247 245 243 241 239 236 235 233 232 234 236 237 241 242 242 242 244 247 251 254 255 255 255 255 253 252 253 253 251 252 251 248 247 250 254 259 261 259 261 266 267 269 273 275 275 276 282 286 286 285 283 280 278 278 277 275 272 270 270 270 271 272 274 274 273 273 272 273 275 275 274 273 274 274 272 268 272 282 285
272 263 259 259 258 254 249 247 244 242 239 237 236 234 234 235 235 236 239 240 240 241 244 247 249 251 253 255 254 252 251 251 251 250 247 246 247 248 251 254 257 257 256 257 263 267 267 270 273 273 273 278 284 286 285 285 283 279 277 277 276 276 274 270 270 269 269 270 271 271 271 272 273 272 270 269 267 267 269 273 269 260 259 272 290
279 271 266 264 263 258 254 250 247 244 241 240 239 237 236 236 235 235 236 237 239 240 242 245 247 249 251 252 251 249 250 252 252 252 250 249 250 252 254 255 255 254 256 262 266 266 266 270 270 270 275 281 284 285 284 284 282 278 276 276 275 275 273 271 270 268 268 268 268 268 268 269 269 270 267 263 260 260 265 272 270 262 257 252 255
285 280 274 268 264 261 258 254 251 248 245 243 241 238 235 235 235 235 236 238 240 240 242 244 245 247 249 249 248 248 250 252 251 251 251 250 252 253 254 253 254 257 261 264 264 263 265 267 267 271 278 282 283 282 282 282 279 276 274 273 272 270 269 269 269 267 266 266 266 265 265 266 266 266 266 264 261 260 262 266 269 270 267 260 258
292 288 282 275 271 267 264 260 257 253 249 246 241 236 234 233 233 233 235 236 236 237 239 240 242 244 246 247 247 248 250 251 251 251 249 249 252 253 253 253 255 260 263 263 263 263 263 262 265 273 279 281 280 279 279 280 276 272 270 270 269 267 266 266 266 265 264 263 263 263 263 263 264 264 264 264 263 262 261 263 265 270 274 276 279
300 297 292 286 281 278 273 268 263 258 253 247 241 236 233 231 231 231 232 232 232 234 236 238 239 240 243 245 245 246 248 251 252 250 249 251 252 252 252 254 258 261 261 261 263 262 258 260 267 274 277 277 276 276 277 277 273 269 267 267 266 265 263 264 264 263 262 261 260 261 262 262 262 263 263 264 264 263 262 261 262 264 267 268 272
302 300 298 296 291 287 282 275 267 259 253 248 242 237 233 231 230 230 229 230 231 232 233 236 238 238 240 242 243 244 247 251 251 249 250 252 252 252 254 256 259 260 260 261 261 257 257 262 269 272 273 273 274 277 278 275 269 266 265 265 264 262 261 262 262 261 260 260 259 260 262 262 262 262 262 261 262 262 260 258 257 258 260 259 257
301 299 298 297 294 292 288 280 271 260 254 249 243 238 235 233 231 228 227 229 231 231 232 234 235 237 240 240 241 243 246 248 249 250 251 252 252 253 254 256 259 260 260 259 256 255 259 265 268 268 269 272 275 277 276 270 263 259 260 260 260 260 260 259 259 259 260 259 259 259 260 261 261 260 259 258 258 259 258 258 258 257 259 258 252
308 305 303 301 297 293 288 281 273 265 258 252 245 240 237 235 232 229 228 229 230 230 230 231 233 236 239 239 240 241 244 247 249 250 251 252 254 255 255 257 259 259 258 255 253 257 262 264 264 265 268 272 274 273 268 262 257 255 255 257 258 259 259 259 259 260 260 259 258 258 259 259 258 257 257 257 256 256 256 257 259 259 259 259 254
316 315 315 314 307 298 288 282 277 270 264 256 249 244 239 236 234 230 229 229 229 229 228 229 231 234 236 238 240 240 242 246 248 250 252 254 255 256 257 257 256 256 255 252 253 258 261 260 260 264 269 271 270 265 258 256 255 256 256 258 259 260 261 261 261 261 261 260 258 258 258 257 255 254 254 255 254 253 252 253 254 255 255 255 255
321 321 323 322 318 310 298 290 283 276 270 263 255 249 242 239 237 233 229 228 227 226 226 227 229 231 233 236 239 240 242 246 248 250 252 255 255 256 256 255 254 253 251 250 255 259 258 258 261 266 269 269 265 257 252 252 253 253 254 256 258 259 260 261 262 262 263 262 261 260 260 257 252 250 251 252 251 251 250 249 249 249 250 250 251
322 325 326 325 324 320 313 305 295 285 277 269 262 255 247 242 238 234 229 227 226 223 222 225 227 228 231 234 237 240 243 246 248 250 251 253 253 252 253 253 251 249 248 252 257 257 257 260 265 267 267 264 259 253 250 251 252 252 253 255 257 258 260 261 262 264 264 264 264 263 262 259 253 251 252 252 250 249 248 248 247 247 246 245 244
327 328 327 326 325 322 320 316 310 301 289 278 270 262 255 247 241 235 228 225 223 220 219 222 223 226 229 233 237 240 244 246 246 247 248 248 246 244 249 252 250 249 252 255 256 257 261 265 267 265 262 260 258 254 252 254 256 256 254 255 258 260 263 264 264 265 266 267 267 266 266 263 260 257 255 254 253 250 247 246 246 245 243 241 240
330 329 328 327 325 324 324 322 320 316 305 293 281 269 261 251 242 234 228 224 220 218 218 219 220 224 228 233 236 239 243 244 242 242 241 239 238 240 248 251 251 252 254 254 256 261 266 267 266 264 261 260 258 257 258 259 258 258 259 261 264 266 267 268 270 272 272 270 269 268 268 267 266 264 261 258 256 253 249 246 245 243 240 238 238
329 327 326 325 324 324 323 323 323 322 317 309 296 279 265 252 241 231 225 223 219 216 216 216 219 223 228 231 234 237 240 239 238 238 235 233 236 242 248 252 252 252 253 256 261 265 267 266 265 263 261 260 259 257 259 259 256 256 262 268 272 273 273 273 274 274 275 275 272 268 268 269 267 265 263 259 252 246 244 246 248 246 241 237 235
327 324 324 324 324 324 323 323 324 324 322 318 309 295 275 255 243 231 223 220 217 215 215 216 219 223 227 230 232 234 236 235 237 238 235 235 239 244 248 251 251 253 256 261 265 266 267 265 263 261 259 258 257 256 257 258 254 252 256 261 267 271 273 273 273 272 273 277 276 271 269 268 265 260 259 255 248 242 241 243 244 244 243 240 236
324 323 325 325 325 325 325 325 326 325 324 322 317 306 284 261 245 230 221 217 215 214 215 217 220 222 225 228 230 231 232 233 235 236 236 238 242 244 246 249 251 256 260 263 266 267 266 263 260 258 257 257 259 260 261 260 258 256 255 255 258 262 265 267 269 270 271 273 274 272 269 268 266 261 257 255 252 247 243 242 243 242 241 239 237
321 323 324 324 324 325 324 325 325 324 323 322 320 309 289 271 252 232 220 215 213 214 215 216 219 221 223 226 228 228 230 233 234 234 237 239 240 242 246 250 253 258 261 264 267 267 265 261 259 258 260 263 265 265 263 261 260 260 258 256 258 260 261 262 265 268 269 268 269 269 266 266 267 262 256 255 256 254 249 244 243 245 244 242 239
319 321 322 322 322 322 323 324 324 324 324 323 321 312 296 280 256 232 220 214 213 213 214 215 217 220 222 225 226 228 230 232 233 234 236 238 241 244 247 251 255 257 261 265 267 265 263 261 262 262 265 268 267 265 264 261 260 261 260 259 262 262 264 267 267 267 269 273 274 270 264 263 264 261 257 256 256 256 255 250 245 244 244 244 243
319 321 322 324 325 325 326 325 325 327 326 324 321 315 300 280 254 231 219 215 214 213 213 215 217 218 221 223 224 226 228 229 231 233 236 239 242 244 246 250 253 257 262 266 266 264 264 265 267 267 269 269 268 265 264 262 261 263 262 262 265 267 268 270 268 264 268 281 284 276 267 262 261 262 264 264 260 258 256 253 250 248 246 244 244
317 319 321 324 325 324 324 324 324 325 324 322 320 314 298 276 252 231 221 217 215 213 213 215 216 218 221 222 222 224 226 228 230 232 235 239 240 242 245 248 252 258 263 265 265 266 268 270 271 270 270 270 267 263 262 263 263 263 262 263 267 269 270 272 269 260 270 285 287 280 272 265 262 265 268 269 266 261 255 251 251 253 254 252 251
311 316 319 322 322 321 321 321 321 321 322 321 319 312 296 273 249 231 224 219 214 214 216 216 217 220 221 220 220 221 224 227 229 231 234 237 239 241 244 247 252 258 260 262 266 269 271 273 273 270 269 271 270 264 259 262 264 262 261 265 270 271 274 283 278 264 266 280 284 282 277 268 264 266 270 270 260 248 246 249 250 252 252 254 259
319 323 324 324 323 323 322 321 319 320 322 323 320 312 293 270 251 235 227 219 215 218 219 218 220 223 222 221 219 220 223 226 229 232 234 236 238 241 244 248 252 255 258 263 269 273 274 274 273 271 268 270 272 268 261 264 267 264 262 266 272 275 283 291 285 273 270 274 275 275 272 267 266 268 272 271 257 241 239 242 246 250 248 249 259
328 328 327 324 323 323 322 320 319 318 320 324 322 310 289 270 256 244 230 220 221 226 224 222 224 226 223 222 221 221 223 226 230 233 234 235 237 240 244 248 251 254 260 267 271 273 274 273 274 274 270 267 268 268 265 265 267 265 263 265 271 282 292 290 283 283 284 278 272 270 266 264 265 266 266 264 261 256 250 244 242 243 242 247 259
326 325 323 322 322 322 320 318 317 316 319 323 321 309 288 272 264 251 233 227 232 234 229 227 229 227 223 222 223 223 224 227 231 233 234 236 238 241 244 246 250 257 263 268 270 271 273 275 276 276 274 268 267 270 268 263 263 264 262 264 274 292 297 291 287 289 291 286 277 274 275 272 268 265 264 264 265 269 267 260 249 238 236 247 260
319 318 319 320 320 318 316 314 313 314 316 320 318 305 288 278 269 254 242 243 244 239 230 228 228 224 221 222 223 224 226 229 231 232 234 238 240 241 243 245 250 256 257 260 264 268 274 277 277 277 276 273 271 273 270 256 256 264 263 265 285 299 297 290 286 284 284 281 277 274 272 271 266 262 263 267 271 272 271 270 266 252 246 254 261
315 317 319 320 318 316 314 313 314 314 314 317 315 300 289 282 269 258 259 258 252 239 229 227 224 220 220 221 222 224 226 227 228 229 232 236 238 240 245 248 250 251 253 258 265 269 274 278 279 278 276 275 274 271 261 238 244 262 266 272 287 294 289 280 276 274 273 274 273 270 266 263 263 264 268 271 275 275 271 268 269 267 263 262 260
315 317 318 319 317 315 313 313 314 314 313 316 312 299 293 285 270 272 274 266 252 240 232 226 221 219 220 220 220 223 224 223 223 225 229 233 236 240 246 249 248 249 253 258 263 268 272 277 282 281 278 280 280 261 232 226 248 264 271 279 286 285 278 272 268 269 271 271 271 272 272 273 273 274 274 274 273 272 268 266 267 269 270 270 267
314 315 317 319 317 314 312 312 312 312 313 314 311 301 295 288 284 287 283 266 251 243 231 222 220 219 217 218 220 221 221 220 220 223 226 230 233 237 244 246 245 246 249 252 258 262 265 273 280 283 285 293 294 214 212 238 265 280 284 284 283 278 274 272 270 271 273 274 274 276 278 278 276 275 277 278 276 274 275 277 281 288 294 294 290
313 315 318 319 317 314 310 308 309 311 312 313 313 303 292 294 300 299 285 264 251 240 225 220 219 216 214 217 218 218 219 218 219 221 225 227 230 234 238 239 240 241 241 244 251 255 258 264 272 279 289 304 306 230 245 265 288 297 290 280 280 282 281 278 278 279 283 283 281 280 281 282 283 287 292 294 291 289 290 291 291 294 295 292 289
314 318 321 321 319 315 311 308 309 311 312 315 318 310 297 301 308 305 287 266 249 232 222 220 217 213 213 213 211 212 214 215 218 223 227 229 231 231 232 233 235 234 233 238 244 248 253 258 262 272 285 297 281 273 281 293 297 291 278 273 285 292 287 283 284 286 286 283 279 280 287 292 294 296 298 299 296 293 292 293 291 288 283 279 279
317 322 323 322 319 315 312 309 308 310 314 318 321 319 313 310 311 306 290 267 245 229 222 218 213 210 210 209 208 209 208 211 216 221 225 231 231 229 228 227 226 226 227 232 237 239 242 244 253 270 282 279 273 280 292 299 297 286 277 287 295 293 290 295 299 295 286 278 276 283 292 294 294 294 292 290 289 287 286 286 281 276 275 274 273
321 324 323 320 317 314 311 308 307 311 317 320 322 325 324 320 316 308 291 264 242 231 224 220 214 209 208 209 209 208 206 209 214 217 223 229 228 224 224 224 224 225 226 228 232 236 239 240 249 268 276 264 264 280 297 302 299 290 288 293 297 297 294 296 295 282 265 274 290 292 293 292 292 292 288 283 280 279 278 280 278 276 276 277 276
322 322 319 315 315 314 311 308 310 317 320 321 324 327 326 324 320 312 292 261 242 234 226 220 214 209 208 209 208 208 208 209 211 217 225 230 229 227 226 227 229 229 229 232 235 238 241 246 258 269 266 251 253 279 297 297 291 288 288 291 300 302 296 291 281 253 271 301 305 299 298 300 301 305 307 305 305 304 296 289 293 296 294 293 301
320 320 318 317 320 319 316 316 320 322 321 324 328 328 327 326 323 314 294 263 246 235 225 218 212 208 207 206 204 206 208 209 211 215 221 227 231 231 231 235 235 230 226 233 239 241 246 261 270 269 260 246 258 285 295 290 288 292 298 303 308 311 313 76 23 308 303 307 306 302 311 326 333 346 354 353 350 349 345 337 332 334 337 335 340
323 323 323 325 326 326 325 323 322 321 325 331 331 329 329 329 326 318 298 270 250 234 223 217 211 207 206 205 203 205 207 208 212 214 215 221 225 226 229 234 235 229 226 231 236 240 250 263 265 260 253 260 278 287 288 285 288 302 315 311 312 334 37 312 299 299 301 305 308 323 3 14 15 18 15 8 1 359 359 353 346 346 350 349 346